[[{"header":{"parameterUnit":"m.s-1","parameterCategory":1,"la1":30.2991,"la2":30.254,"lo1":-89.0895,"lo2":-89.0444,"dy":0.0017,"dx":0.0017,"nx":28,"ny":28,"refTime":"2024-06-15T21:00:00:Z","depth":0,"parameterNumber":2,"parameterNumberName":"U-component_of_WINDS"},"data":[0,0,0,0,0,0,0,0,0,0,0,0,0,0,0,0,0,0,0,0,0,0,0,0,0,0,0,0,0,0,0,0,0,0,0,0,0,0,0,0,0,0,0,0,0,0,0,0,0,0,0,0,0,0,0,0,0,0,-3.1082,-3.1082,0,-3.1111,-3.1111,-3.1111,-3.1048,-3.1046,-3.1044,-3.1042,-3.1072,-3.1075,-3.1078,0,0,0,0,0,0,0,0,0,0,0,0,0,-3.0972,-3.0974,-3.1081,-3.1082,-3.1082,-3.1111,-3.1111,-3.1111,-3.1049,-3.1046,-3.1044,-3.1042,-3.1071,-3.1075,-3.1078,0,0,0,0,0,0,0,0,0,0,0,0,0,-3.1012,-3.0975,-3.1081,-3.1054,-3.1052,-3.111,-3.1111,-3.1111,-3.1049,-3.1046,-3.1043,-3.104,-3.107,-3.1074,-3.1078,-3.1164,0,0,-3.1091,-3.1092,0,0,0,0,0,0,0,0,-3.101,-3.1016,-3.1058,-3.1056,-3.1054,-3.1073,-3.1083,-3.1129,-3.105,-3.105,-3.1042,-3.1039,-3.1075,-3.1078,-3.109,-3.1165,-3.1167,-3.1091,-3.1093,-3.1095,-3.1096,0,0,0,0,0,0,0,-3.1007,-3.1015,-3.1093,-3.1059,-3.1056,-3.1041,-3.1043,-3.1092,-3.1079,-3.105,-3.1046,-3.105,-3.1073,-3.1087,-3.1091,-3.1167,-3.1091,-3.1094,-3.1097,-3.1098,-3.1314,-3.1317,0,0,0,0,0,0,-3.1008,-3.1013,-3.1092,-3.1094,-3.1024,-3.1045,-3.1048,-3.107,-3.1079,-3.1077,-3.1053,-3.1047,-3.1081,-3.1086,-3.1092,-3.1192,-3.1095,-3.1099,-3.1101,-3.131,-3.1314,-3.1318,0,0,0,0,0,0,-3.1006,-3.1016,-3.1091,-3.1052,-3.1061,-3.105,-3.1076,-3.1072,-3.1085,-3.108,-3.1078,-3.1069,-3.1079,-3.1086,-3.1146,-3.1192,-3.1101,-3.1104,-3.1306,-3.1312,-3.1316,-3.1395,0,0,0,0,0,0,-3.1003,-3.1015,-3.1048,-3.1053,-3.1063,-3.1145,-3.1078,-3.1075,-3.1093,-3.1085,-3.1095,-3.1093,-3.1077,-3.1141,-3.115,-3.1196,-3.1107,-3.1302,-3.1309,-3.1315,-3.1388,-3.1402,-3.1413,0,0,0,0,0,-3.0999,-3.1069,-3.105,-3.1059,-3.1103,-3.1148,-3.1154,-3.1134,-3.1097,-3.1129,-3.1126,-3.1093,-3.1186,-3.1147,-3.1158,-3.1206,-3.1299,-3.1307,-3.1314,-3.1382,-3.1399,-3.1413,0,0,0,0,0,0,-3.1068,-3.1069,-3.1048,-3.1121,-3.1135,-3.1137,-3.1178,-3.1152,-3.1177,-3.1169,-3.1143,-3.1146,-3.1211,-3.1215,-3.1172,-3.1289,-3.1236,-3.1246,-3.1284,-3.13,-3.1313,-3.1311,-3.1111,0,0,0,0,0,-3.1092,-3.1129,-3.1127,-3.1192,-3.12,-3.1188,-3.1207,-3.119,-3.1204,-3.1209,-3.121,-3.1225,-3.1257,-3.1279,-3.1308,-3.1388,-3.1389,-3.1426,-3.1439,-3.1449,-3.1458,-3.15,-3.1517,-3.1342,-3.1342,-3.1342,0,0,-3.1142,-3.1146,-3.1171,-3.1206,-3.1215,-3.1253,-3.1193,-3.1236,-3.1265,-3.1216,-3.1273,-3.1275,-3.1289,-3.1359,-3.139,-3.1364,-3.1507,-3.1459,-3.1467,-3.147,-3.151,-3.1526,-3.1541,-3.1347,-3.1346,-3.1346,0,0,-3.1251,-3.1259,-3.1313,-3.1324,-3.1338,-3.133,-3.1343,-3.1349,-3.1349,-3.1406,-3.137,-3.1403,-3.1459,-3.1471,-3.1484,-3.1599,-3.157,-3.161,-3.1676,-3.1718,-3.1731,-3.1743,-3.1784,-3.1799,-3.1618,-3.1619,-3.1619,0,-3.1311,-3.1367,-3.1345,-3.1391,-3.1407,-3.1365,-3.142,-3.1431,-3.1454,-3.1467,-3.1437,-3.1507,-3.1513,-3.1586,-3.1614,-3.1626,-3.164,-3.1608,-3.1731,-3.1743,-3.1754,-3.1793,-3.1808,-3.1623,-3.1623,-3.1622,-3.1622,0,-3.144,-3.148,-3.1522,-3.1546,-3.1567,-3.1617,-3.1602,-3.1627,-3.1609,-3.1603,-3.1662,-3.1669,-3.1699,-3.1715,-3.1698,-3.1785,-3.1768,-3.1736,-3.1682,-3.1776,-3.1811,-3.1826,-3.163,-3.1628,-3.1627,-3.1626,0,0,-3.1594,-3.1604,-3.162,-3.163,-3.1643,-3.1674,-3.1722,-3.1752,-3.1773,-3.1791,-3.183,-3.1879,-3.1849,-3.1864,-3.1848,-3.1885,-3.1975,-3.1847,-3.1847,-3.187,-3.2072,-3.2096,-3.2114,-3.1956,-3.1959,-3.1961,-3.207,0,-3.1702,-3.1785,-3.1766,-3.1848,-3.1885,-3.1845,-3.1888,-3.19,-3.1897,-3.1927,-3.1923,-3.1958,-3.1916,-3.1925,-3.1959,-3.1957,-3.2015,-3.1948,-3.1993,-3.1994,-3.199,-3.2132,-3.2158,-3.2262,-3.2084,-3.2087,-3.2088,0,-3.1839,-3.1862,-3.1948,-3.1955,-3.197,-3.2008,-3.2033,-3.2063,-3.2077,-3.2072,-3.2089,-3.2066,-3.2114,-3.206,-3.2126,-3.2081,-3.2098,-3.21,-3.2103,-3.2106,-3.2047,-3.2139,-3.2294,-3.2309,-3.211,-3.2108,-3.2107,0,-3.1943,-3.1995,-3.2053,-3.2063,-3.2073,-3.21,-3.2106,-3.2116,-3.2135,-3.2158,-3.217,-3.2198,-3.2213,-3.2235,-3.222,-3.2183,-3.2289,-3.2234,-3.2286,-3.2286,-3.2309,-3.2308,-3.2469,-3.2321,-3.2321,-3.2321,-3.232,0,-3.2065,-3.2119,-3.2099,-3.2135,-3.2194,-3.2172,-3.2232,-3.2233,-3.2242,-3.2277,-3.2245,-3.2279,-3.2257,-3.2289,-3.2278,-3.2334,-3.2341,-3.2338,-3.2335,-3.2341,-3.2342,-3.2352,-3.2344,-3.2325,-3.2324,-3.2323,-3.2322,0,-3.2191,-3.2179,-3.224,-3.2244,-3.2247,-3.229,-3.2294,-3.2327,-3.2321,-3.2366,-3.2376,-3.2367,-3.2403,-3.239,-3.2429,-3.2421,-3.2493,-3.248,-3.2488,-3.2485,-3.2537,-3.2532,-3.271,-3.2732,-3.2571,-3.2572,-3.2573,0,-3.227,-3.231,-3.2319,-3.234,-3.2348,-3.2382,-3.2401,-3.2382,-3.2403,-3.2422,-3.2453,-3.2486,-3.2511,-3.2571,-3.2568,-3.2597,-3.2585,-3.2645,-3.2589,-3.2594,-3.2585,-3.2583,-3.2587,-3.2656,-3.2658,-3.2659,-3.2661,0,-3.2411,-3.2403,-3.2432,-3.2459,-3.2483,-3.2504,-3.2521,-3.254,-3.2521,-3.2547,-3.2583,-3.2603,-3.2643,-3.2676,-3.2703,-3.2708,-3.2682,-3.2678,-3.2692,-3.2699,-3.2702,-3.2701,-3.2518,-3.2674,-3.2673,-3.2672,-3.2671,-3.2671,-3.2515,-3.2549,-3.2561,-3.2594,-3.2605,-3.2622,-3.2654,-3.2652,-3.2682,-3.2712,-3.2699,-3.2741,-3.2754,-3.2786,-3.2796,-3.2828,-3.2805,-3.2825,-3.283,-3.2835,-3.2841,-3.2697,-3.2833,-3.2833,-3.2832,-3.2832,-3.2832,0,-3.2655,-3.266,-3.2691,-3.2717,-3.2743,-3.2715,-3.2733,-3.2757,-3.2795,-3.2809,-3.2834,-3.2876,-3.2908,-3.2908,-3.2938,-3.2965,-3.2953,-3.2973,-3.2971,-3.2973,-3.2861,-3.2846,-3.2982,-3.2982,-3.2982,-3.2982,-3.2982,-3.2982,-3.2731,-3.2787,-3.2781,-3.2842,-3.2847,-3.2888,-3.2901,-3.2917,-3.2927,-3.2976,-3.3002,-3.3002,-3.301,-3.3041,-3.3069,-3.3068,-3.3081,-3.3105,-3.31,-3.2995,-3.298,-3.2966,-3.2952,-3.3108,-3.3108,-3.3209,-3.321,-3.3211]},{"header":{"parameterUnit":"m.s-1","parameterCategory":1,"la1":30.2991,"la2":30.254,"lo1":-89.0895,"lo2":-89.0444,"dy":0.0017,"dx":0.0017,"nx":28,"ny":28,"refTime":"2024-06-15T21:00:00:Z","depth":0,"parameterNumber":3,"parameterNumberName":"V-component_of_WINDS"},"data":[0,0,0,0,0,0,0,0,0,0,0,0,0,0,0,0,0,0,0,0,0,0,0,0,0,0,0,0,0,0,0,0,0,0,0,0,0,0,0,0,0,0,0,0,0,0,0,0,0,0,0,0,0,0,0,0,0,0,3.227,3.227,0,3.2252,3.2252,3.2252,3.2157,3.2154,3.2152,3.215,3.2133,3.2135,3.2136,0,0,0,0,0,0,0,0,0,0,0,0,0,3.2223,3.2224,3.227,3.227,3.2269,3.2252,3.2252,3.2252,3.2157,3.2154,3.2152,3.2149,3.2132,3.2134,3.2136,0,0,0,0,0,0,0,0,0,0,0,0,0,3.2228,3.2224,3.227,3.222,3.2216,3.2252,3.2252,3.2252,3.2158,3.2154,3.2151,3.2148,3.2132,3.2134,3.2137,3.222,0,0,3.2144,3.2145,0,0,0,0,0,0,0,0,3.2228,3.223,3.2228,3.2224,3.2219,3.2203,3.2229,3.2241,3.2159,3.218,3.215,3.2146,3.2159,3.2159,3.2163,3.2219,3.2218,3.2144,3.2146,3.2147,3.2148,0,0,0,0,0,0,0,3.2228,3.223,3.2263,3.2228,3.2222,3.2199,3.2196,3.2231,3.2189,3.2178,3.2171,3.217,3.2156,3.2161,3.2162,3.2218,3.2144,3.2147,3.2148,3.2149,3.2342,3.2345,0,0,0,0,0,0,3.2234,3.223,3.2263,3.2262,3.2215,3.2203,3.2199,3.2212,3.2188,3.2181,3.2173,3.2165,3.2159,3.2159,3.2161,3.2257,3.2147,3.2149,3.2151,3.2338,3.2343,3.2347,0,0,0,0,0,0,3.2233,3.2238,3.2264,3.2244,3.2246,3.2207,3.2222,3.2213,3.2218,3.2184,3.2177,3.2186,3.2156,3.2158,3.2206,3.2255,3.215,3.2153,3.2334,3.234,3.2345,3.245,0,0,0,0,0,0,3.2232,3.2238,3.2269,3.2246,3.2247,3.2309,3.2225,3.2215,3.2222,3.2213,3.2194,3.2188,3.2153,3.2203,3.2209,3.2257,3.2155,3.2329,3.2336,3.2343,3.2442,3.2459,3.2473,0,0,0,0,0,3.2231,3.23,3.2271,3.2276,3.2285,3.2312,3.2313,3.2271,3.2227,3.2258,3.2236,3.2189,3.2249,3.2209,3.2214,3.2264,3.2326,3.2334,3.2342,3.2435,3.2456,3.2473,0,0,0,0,0,0,3.2331,3.2296,3.2264,3.2327,3.2323,3.2296,3.2334,3.2294,3.2303,3.2294,3.2242,3.2238,3.2295,3.2284,3.2239,3.2344,3.2279,3.2289,3.2348,3.2367,3.2382,3.2384,3.2157,0,0,0,0,0,3.236,3.2384,3.2353,3.2412,3.2411,3.2374,3.2384,3.2352,3.2346,3.2344,3.2326,3.2322,3.234,3.2353,3.2368,3.244,3.2435,3.2478,3.2493,3.2506,3.2515,3.2552,3.2571,3.2373,3.2373,3.2373,0,0,3.2421,3.2405,3.2423,3.2431,3.2425,3.2451,3.2373,3.2404,3.2424,3.2349,3.2393,3.238,3.2372,3.2433,3.2459,3.2426,3.2568,3.2516,3.2526,3.2528,3.2563,3.2581,3.2598,3.2379,3.2378,3.2377,0,0,3.2545,3.2535,3.2583,3.2578,3.2569,3.2543,3.2555,3.2534,3.2522,3.2566,3.251,3.2533,3.2565,3.2562,3.2565,3.2689,3.2645,3.2695,3.2775,3.2812,3.2828,3.2841,3.2886,3.2902,3.2704,3.2704,3.2704,0,3.2622,3.2659,3.2613,3.2648,3.2654,3.2587,3.2635,3.2633,3.2629,3.2635,3.2598,3.2637,3.2627,3.2686,3.2717,3.2721,3.2733,3.2697,3.2829,3.2842,3.2854,3.2896,3.2913,3.271,3.271,3.2709,3.2708,0,3.2754,3.2781,3.2821,3.2819,3.2829,3.2871,3.2831,3.2847,3.2814,3.2793,3.2838,3.2824,3.2835,3.2847,3.2816,3.2902,3.2882,3.2838,3.2773,3.288,3.2918,3.2934,3.2719,3.2717,3.2715,3.2714,0,0,3.294,3.2912,3.2928,3.2926,3.2911,3.2931,3.297,3.2981,3.2995,3.2995,3.3026,3.3056,3.3015,3.3018,3.2986,3.3019,3.3118,3.297,3.2969,3.2998,3.3213,3.3246,3.3265,3.3089,3.3092,3.3094,3.3213,0,3.3059,3.3123,3.3083,3.3154,3.3179,3.3116,3.315,3.3145,3.3126,3.3144,3.3123,3.3145,3.3089,3.3091,3.3121,3.31,3.316,3.3091,3.3118,3.312,3.3122,3.3285,3.332,3.3433,3.3228,3.3231,3.3232,0,3.3206,3.3212,3.3286,3.3266,3.3275,3.3306,3.3313,3.3331,3.3324,3.3308,3.3312,3.3272,3.3309,3.3245,3.3295,3.3249,3.3258,3.325,3.3253,3.3254,3.3183,3.3291,3.3468,3.3485,3.3255,3.3254,3.3252,0,3.3335,3.3361,3.3409,3.3409,3.3388,3.3411,3.3403,3.3393,3.3402,3.3407,3.3413,3.3423,3.3429,3.3438,3.3402,3.3358,3.3458,3.339,3.3446,3.3447,3.3469,3.3468,3.3651,3.3476,3.3475,3.3475,3.3475,0,3.3472,3.3519,3.3466,3.3495,3.3547,3.35,3.3552,3.3538,3.3529,3.3555,3.3501,3.3527,3.3477,3.3497,3.3469,3.3516,3.3519,3.3507,3.3499,3.3512,3.3514,3.3517,3.3509,3.3479,3.3478,3.3478,3.3477,0,3.3624,3.359,3.3638,3.3613,3.3608,3.3647,3.3626,3.3653,3.363,3.3663,3.3668,3.3633,3.3654,3.3619,3.3636,3.3617,3.3682,3.3662,3.3685,3.3679,3.3736,3.3731,3.3927,3.3951,3.3761,3.3763,3.3764,0,3.3713,3.3748,3.3728,3.3741,3.3736,3.3758,3.3766,3.3722,3.3734,3.3729,3.3756,3.3772,3.3783,3.382,3.3797,3.381,3.3789,3.3857,3.3791,3.3803,3.3791,3.3789,3.3792,3.3871,3.3873,3.3875,3.3877,0,3.3876,3.3858,3.3872,3.3881,3.3893,3.3898,3.3899,3.3913,3.3867,3.3882,3.3903,3.3912,3.3929,3.3947,3.3954,3.3946,3.3904,3.3898,3.3911,3.3925,3.3936,3.3931,3.3722,3.3893,3.3892,3.389,3.389,3.3889,3.4,3.4028,3.4018,3.4036,3.4032,3.4034,3.4058,3.4038,3.4055,3.4065,3.4038,3.4066,3.4058,3.4063,3.406,3.4081,3.4051,3.4071,3.4076,3.4081,3.4091,3.3933,3.4082,3.4082,3.4081,3.4081,3.408,0,3.4159,3.415,3.4167,3.417,3.4185,3.4144,3.4143,3.4158,3.4182,3.4179,3.4191,3.4215,3.4232,3.4209,3.4222,3.4244,3.4225,3.4248,3.4246,3.4245,3.4116,3.4103,3.4263,3.4263,3.4263,3.4263,3.4263,3.4263,3.4244,3.429,3.4271,3.4314,3.4304,3.433,3.4333,3.4335,3.4332,3.4362,3.4375,3.436,3.4349,3.4361,3.4375,3.4368,3.4375,3.4406,3.4393,3.4272,3.4254,3.4237,3.4225,3.4408,3.4408,3.4519,3.4521,3.4521]}]]